This is the latest recevied weather packets stored in our database for station/object IN3MWE-10. If no packets are shown the sender has not sent any weather packets the latest 10 day(s).
| Time | Temp. | Humidity | Pressure | Rain* | Wind** | Luminosity | Snow |
|---|---|---|---|---|---|---|---|
| 1787793627 | 22.22° C | 98% | 982.4 hPa | - | - | - | - |
| 1787792727 | 22.22° C | 95% | 982.2 hPa | - | - | - | - |
| 1787791827 | 22.78° C | 95% | 982.3 hPa | - | - | - | - |
| 1787790926 | 22.78° C | 96% | 982.5 hPa | - | - | - | - |
| 1787790026 | 22.22° C | 95% | 982.4 hPa | - | - | - | - |
| 1787789126 | 22.78° C | 92% | 982.3 hPa | - | - | - | - |
| 1787788226 | 22.78° C | 91% | 982.3 hPa | - | - | - | - |
| 1787787326 | 22.78° C | 91% | 982.2 hPa | - | - | - | - |
| 1787786426 | 23.33° C | 88% | 982.1 hPa | - | - | - | - |
| 1787785526 | 23.33° C | 87% | 982.1 hPa | - | - | - | - |
| 1787784625 | 23.89° C | 87% | 981.9 hPa | - | - | - | - |
| 1787783725 | 23.89° C | 84% | 981.8 hPa | - | - | - | - |
| 1787782825 | 23.89° C | 84% | 981.6 hPa | - | - | - | - |
| 1787781925 | 23.89° C | 84% | 981.8 hPa | - | - | - | - |
| 1787781025 | 23.89° C | 85% | 981.6 hPa | - | - | - | - |
| 1787780125 | 23.33° C | 87% | 981.6 hPa | - | - | - | - |
| 1787779225 | 23.33° C | 88% | 981.5 hPa | - | - | - | - |
| 1787778324 | 23.33° C | 88% | 981.3 hPa | - | - | - | - |
| 1787777424 | 23.89° C | 87% | 981 hPa | - | - | - | - |
| 1787776524 | 24.44° C | 84% | 981.3 hPa | - | - | - | - |
| 1787775624 | 24.44° C | 84% | 981.4 hPa | - | - | - | - |
| 1787774724 | 24.44° C | 82% | 981.2 hPa | - | - | - | - |
| 1787773824 | 24.44° C | 82% | 981.1 hPa | - | - | - | - |
| 1787772924 | 25° C | 79% | 981 hPa | - | - | - | - |
| 1787772024 | 25° C | 80% | 980.8 hPa | - | - | - | - |
* Rain since midnight (hover to see other rain measurements)
** Current wind speed in m/s (hover to see current wind gust speed)